Tabellarische Ansicht des 2.11.2007


Die einzelnen Werte des Tages

Uhrzeit Temperatur Luftdruck Luftfeuchte Wind Hi-Wind Taupunkt THW Index Wind Chill Heat Index Solar- strahlung Regen

00:00

11.6 C

1029.1 hpa

91 %

8.0 km/h aus 110

16.1 km/h aus SW

10.1 C

10.9 C

10.8 C

11.7 C

0 W/m

0.00 mm

00:05

11.6 C

1029.1 hpa

91 %

8.0 km/h aus 111

14.5 km/h aus SW

10.1 C

10.9 C

10.8 C

11.7 C

0 W/m

0.00 mm

00:10

11.6 C

1029.1 hpa

91 %

8.0 km/h aus 112

16.1 km/h aus SW

10.1 C

10.9 C

10.8 C

11.7 C

0 W/m

0.00 mm

00:15

11.5 C

1029.1 hpa

91 %

6.4 km/h aus 106

16.1 km/h aus W

10.1 C

11.2 C

11.1 C

11.6 C

0 W/m

0.00 mm

00:20

11.5 C

1029.1 hpa

91 %

8.0 km/h aus 111

14.5 km/h aus SW

10.1 C

10.9 C

10.8 C

11.6 C

0 W/m

0.00 mm

00:25

11.5 C

1029.1 hpa

91 %

9.7 km/h aus 112

16.1 km/h aus SSW

10.1 C

10.6 C

10.4 C

11.6 C

0 W/m

0.00 mm

00:30

11.5 C

1029.0 hpa

91 %

8.0 km/h aus 112

14.5 km/h aus SW

10.1 C

10.9 C

10.8 C

11.6 C

0 W/m

0.00 mm

00:35

11.5 C

1029.0 hpa

91 %

6.4 km/h aus 112

11.3 km/h aus SW

10.1 C

11.2 C

11.1 C

11.6 C

0 W/m

0.00 mm

00:40

11.5 C

1029.0 hpa

91 %

8.0 km/h aus 113

14.5 km/h aus W

10.1 C

10.9 C

10.8 C

11.6 C

0 W/m

0.00 mm

00:45

11.5 C

1029.0 hpa

92 %

6.4 km/h aus 115

14.5 km/h aus W

10.2 C

11.2 C

11.1 C

11.6 C

0 W/m

0.00 mm

00:50

11.5 C

1029.0 hpa

92 %

6.4 km/h aus 114

14.5 km/h aus WSW

10.2 C

11.2 C

11.1 C

11.6 C

0 W/m

0.00 mm

00:55

11.5 C

1029.0 hpa

92 %

6.4 km/h aus 112

12.9 km/h aus WSW

10.2 C

11.2 C

11.1 C

11.6 C

0 W/m

0.00 mm

01:00

11.5 C

1029.0 hpa

92 %

6.4 km/h aus 112

11.3 km/h aus W

10.2 C

11.2 C

11.1 C

11.6 C

0 W/m

0.00 mm

01:05

11.4 C

1029.0 hpa

92 %

6.4 km/h aus 114

12.9 km/h aus SW

10.2 C

11.2 C

11.1 C

11.6 C

0 W/m

0.00 mm

01:10

11.5 C

1029.0 hpa

92 %

8.0 km/h aus 111

16.1 km/h aus WSW

10.2 C

10.9 C

10.8 C

11.6 C

0 W/m

0.00 mm

01:15

11.5 C

1029.0 hpa

92 %

6.4 km/h aus 117

11.3 km/h aus WSW

10.2 C

11.2 C

11.1 C

11.6 C

0 W/m

0.00 mm

01:20

11.5 C

1029.0 hpa

92 %

6.4 km/h aus 113

9.7 km/h aus SW

10.2 C

11.2 C

11.1 C

11.6 C

0 W/m

0.00 mm

01:25

11.5 C

1029.0 hpa

92 %

8.0 km/h aus 114

16.1 km/h aus SW

10.2 C

10.9 C

10.8 C

11.6 C

0 W/m

0.00 mm

01:30

11.5 C

1029.0 hpa

92 %

8.0 km/h aus 113

16.1 km/h aus WSW

10.2 C

10.9 C

10.8 C

11.6 C

0 W/m

0.00 mm

01:35

11.5 C

1029.0 hpa

92 %

8.0 km/h aus 108

14.5 km/h aus WSW

10.2 C

10.9 C

10.8 C

11.6 C

0 W/m

0.00 mm

01:40

11.5 C

1029.0 hpa

92 %

8.0 km/h aus 107

14.5 km/h aus W

10.2 C

10.9 C

10.8 C

11.6 C

0 W/m

0.00 mm

01:45

11.5 C

1029.0 hpa

92 %

8.0 km/h aus 110

17.7 km/h aus SW

10.2 C

10.9 C

10.8 C

11.6 C

0 W/m

0.00 mm

01:50

11.6 C

1029.0 hpa

92 %

4.8 km/h aus 111

16.1 km/h aus WSW

10.3 C

11.7 C

11.6 C

11.7 C

0 W/m

0.00 mm

01:55

11.6 C

1029.0 hpa

92 %

6.4 km/h aus 110

11.3 km/h aus WSW

10.3 C

11.3 C

11.2 C

11.7 C

0 W/m

0.00 mm

02:00

11.6 C

1029.0 hpa

92 %

6.4 km/h aus 112

9.7 km/h aus W

10.3 C

11.3 C

11.2 C

11.7 C

0 W/m

0.00 mm

02:05

11.6 C

1029.0 hpa

92 %

4.8 km/h aus 111

9.7 km/h aus WSW

10.3 C

11.7 C

11.6 C

11.7 C

0 W/m

0.00 mm

02:10

11.6 C

1029.0 hpa

92 %

6.4 km/h aus 110

14.5 km/h aus W

10.3 C

11.3 C

11.2 C

11.7 C

0 W/m

0.00 mm

02:15

11.6 C

1029.0 hpa

92 %

6.4 km/h aus 109

12.9 km/h aus SW

10.3 C

11.3 C

11.2 C

11.7 C

0 W/m

0.00 mm

02:20

11.6 C

1029.0 hpa

92 %

8.0 km/h aus 109

19.3 km/h aus SW

10.3 C

10.9 C

10.8 C

11.7 C

0 W/m

0.00 mm

02:25

11.6 C

1029.0 hpa

92 %

8.0 km/h aus 113

17.7 km/h aus SW

10.3 C

10.9 C

10.8 C

11.7 C

0 W/m

0.00 mm

02:30

11.6 C

1028.9 hpa

92 %

6.4 km/h aus 113

14.5 km/h aus WSW

10.3 C

11.3 C

11.2 C

11.7 C

0 W/m

0.00 mm

02:35

11.6 C

1028.9 hpa

92 %

6.4 km/h aus 115

11.3 km/h aus SW

10.3 C

11.3 C

11.2 C

11.7 C

0 W/m

0.00 mm

02:40

11.6 C

1028.9 hpa

92 %

8.0 km/h aus 109

16.1 km/h aus SW

10.3 C

10.9 C

10.8 C

11.7 C

0 W/m

0.00 mm

02:45

11.6 C

1028.9 hpa

92 %

6.4 km/h aus 110

11.3 km/h aus SW

10.4 C

11.3 C

11.2 C

11.7 C

0 W/m

0.00 mm

02:50

11.6 C

1028.9 hpa

92 %

8.0 km/h aus 109

16.1 km/h aus WSW

10.4 C

11.0 C

10.9 C

11.7 C

0 W/m

0.00 mm

02:55

11.6 C

1028.9 hpa

92 %

6.4 km/h aus 111

11.3 km/h aus W

10.4 C

11.3 C

11.2 C

11.7 C

0 W/m

0.00 mm

03:00

11.6 C

1028.9 hpa

92 %

6.4 km/h aus 111

11.3 km/h aus W

10.4 C

11.3 C

11.2 C

11.7 C

0 W/m

0.00 mm

03:05

11.6 C

1028.9 hpa

92 %

6.4 km/h aus 114

14.5 km/h aus WSW

10.4 C

11.3 C

11.2 C

11.7 C

0 W/m

0.00 mm

03:10

11.6 C

1028.9 hpa

92 %

6.4 km/h aus 110

9.7 km/h aus W

10.4 C

11.3 C

11.2 C

11.7 C

0 W/m

0.00 mm

03:15

11.6 C

1029.0 hpa

92 %

4.8 km/h aus 113

9.7 km/h aus W

10.4 C

11.7 C

11.6 C

11.7 C

0 W/m

0.00 mm

03:20

11.6 C

1029.0 hpa

92 %

6.4 km/h aus 113

14.5 km/h aus W

10.4 C

11.3 C

11.2 C

11.7 C

0 W/m

0.00 mm

03:25

11.6 C

1029.0 hpa

92 %

6.4 km/h aus 115

12.9 km/h aus WSW

10.4 C

11.3 C

11.2 C

11.7 C

0 W/m

0.00 mm

03:30

11.6 C

1028.9 hpa

92 %

6.4 km/h aus 113

11.3 km/h aus W

10.4 C

11.3 C

11.2 C

11.7 C

0 W/m

0.00 mm

03:35

11.6 C

1028.9 hpa

92 %

4.8 km/h aus 116

9.7 km/h aus WSW

10.4 C

11.7 C

11.6 C

11.7 C

0 W/m

0.00 mm

03:40

11.6 C

1028.9 hpa

92 %

4.8 km/h aus 115

9.7 km/h aus WSW

10.4 C

11.7 C

11.6 C

11.7 C

0 W/m

0.00 mm

03:45

11.6 C

1028.8 hpa

92 %

4.8 km/h aus 111

8.0 km/h aus W

10.4 C

11.7 C

11.6 C

11.7 C

0 W/m

0.00 mm

03:50

11.6 C

1028.8 hpa

92 %

4.8 km/h aus 107

9.7 km/h aus SW

10.4 C

11.7 C

11.6 C

11.7 C

0 W/m

0.00 mm

03:55

11.6 C

1028.8 hpa

92 %

4.8 km/h aus 114

14.5 km/h aus W

10.4 C

11.7 C

11.6 C

11.7 C

0 W/m

0.00 mm

04:00

11.6 C

1028.7 hpa

92 %

4.8 km/h aus 113

11.3 km/h aus W

10.4 C

11.7 C

11.6 C

11.7 C

0 W/m

0.00 mm

04:05

11.6 C

1028.7 hpa

92 %

4.8 km/h aus 113

11.3 km/h aus WSW

10.4 C

11.7 C

11.6 C

11.7 C

0 W/m

0.00 mm

04:10

11.6 C

1028.7 hpa

92 %

6.4 km/h aus 115

11.3 km/h aus W

10.4 C

11.3 C

11.2 C

11.7 C

0 W/m

0.00 mm

04:15

11.6 C

1028.6 hpa

93 %

6.4 km/h aus 109

11.3 km/h aus SW

10.5 C

11.3 C

11.2 C

11.7 C

0 W/m

0.00 mm

04:20

11.6 C

1028.6 hpa

93 %

6.4 km/h aus 113

11.3 km/h aus SW

10.5 C

11.3 C

11.2 C

11.7 C

0 W/m

0.00 mm

04:25

11.6 C

1028.6 hpa

93 %

6.4 km/h aus 111

14.5 km/h aus W

10.5 C

11.3 C

11.2 C

11.7 C

0 W/m

0.00 mm

04:30

11.6 C

1028.5 hpa

93 %

6.4 km/h aus 113

11.3 km/h aus WSW

10.5 C

11.3 C

11.2 C

11.7 C

0 W/m

0.00 mm

04:35

11.6 C

1028.5 hpa

93 %

4.8 km/h aus 112

9.7 km/h aus W

10.5 C

11.7 C

11.6 C

11.7 C

0 W/m

0.00 mm

04:40

11.6 C

1028.5 hpa

93 %

4.8 km/h aus 105

11.3 km/h aus WSW

10.5 C

11.7 C

11.6 C

11.7 C

0 W/m

0.00 mm

04:45

11.6 C

1028.5 hpa

93 %

6.4 km/h aus 116

9.7 km/h aus SW

10.5 C

11.3 C

11.2 C

11.7 C

0 W/m

0.00 mm

04:50

11.6 C

1028.5 hpa

93 %

4.8 km/h aus 112

11.3 km/h aus SW

10.5 C

11.7 C

11.6 C

11.7 C

0 W/m

0.20 mm

04:55

11.5 C

1028.5 hpa

93 %

3.2 km/h aus 110

11.3 km/h aus SW

10.4 C

11.6 C

11.5 C

11.6 C

0 W/m

0.00 mm

05:00

11.5 C

1028.4 hpa

93 %

4.8 km/h aus 105

9.7 km/h aus W

10.4 C

11.6 C

11.5 C

11.6 C

0 W/m

0.00 mm

05:05

11.5 C

1028.4 hpa

94 %

6.4 km/h aus 108

16.1 km/h aus SW

10.6 C

11.3 C

11.1 C

11.7 C

0 W/m

0.00 mm

05:10

11.5 C

1028.4 hpa

94 %

6.4 km/h aus 112

9.7 km/h aus WSW

10.6 C

11.3 C

11.1 C

11.7 C

0 W/m

0.00 mm

05:15

11.5 C

1028.4 hpa

93 %

6.4 km/h aus 111

9.7 km/h aus SW

10.4 C

11.2 C

11.1 C

11.6 C

0 W/m

0.00 mm

05:20

11.5 C

1028.4 hpa

94 %

4.8 km/h aus 110

9.7 km/h aus SW

10.6 C

11.7 C

11.5 C

11.7 C

0 W/m

0.00 mm

05:25

11.5 C

1028.4 hpa

94 %

4.8 km/h aus 112

9.7 km/h aus SW

10.6 C

11.7 C

11.5 C

11.7 C

0 W/m

0.00 mm

05:30

11.4 C

1028.3 hpa

94 %

4.8 km/h aus 109

8.0 km/h aus WSW

10.5 C

11.6 C

11.4 C

11.6 C

0 W/m

0.00 mm

05:35

11.4 C

1028.3 hpa

94 %

6.4 km/h aus 116

14.5 km/h aus SW

10.5 C

11.2 C

11.1 C

11.6 C

0 W/m

0.00 mm

05:40

11.4 C

1028.3 hpa

94 %

6.4 km/h aus 113

11.3 km/h aus WSW

10.5 C

11.2 C

11.1 C

11.6 C

0 W/m

0.00 mm

05:45

11.4 C

1028.1 hpa

94 %

4.8 km/h aus 106

14.5 km/h aus WNW

10.5 C

11.6 C

11.4 C

11.6 C

0 W/m

0.00 mm

05:50

11.4 C

1028.1 hpa

94 %

6.4 km/h aus 110

11.3 km/h aus WSW

10.5 C

11.2 C

11.1 C

11.6 C

0 W/m

0.00 mm

05:55

11.4 C

1028.1 hpa

94 %

6.4 km/h aus 111

14.5 km/h aus W

10.5 C

11.2 C

11.1 C

11.6 C

0 W/m

0.00 mm

06:00

11.4 C

1028.4 hpa

94 %

6.4 km/h aus 112

12.9 km/h aus WSW

10.5 C

11.2 C

11.1 C

11.6 C

0 W/m

0.00 mm

06:05

11.4 C

1028.4 hpa

94 %

4.8 km/h aus 107

8.0 km/h aus W

10.5 C

11.6 C

11.4 C

11.6 C

0 W/m

0.00 mm

06:10

11.5 C

1028.4 hpa

94 %

3.2 km/h aus 113

8.0 km/h aus WSW

10.6 C

11.7 C

11.5 C

11.7 C

0 W/m

0.00 mm

06:15

11.5 C

1028.5 hpa

94 %

4.8 km/h aus 111

9.7 km/h aus W

10.6 C

11.7 C

11.5 C

11.7 C

0 W/m

0.00 mm

06:20

11.5 C

1028.5 hpa

94 %

4.8 km/h aus 112

9.7 km/h aus WSW

10.6 C

11.7 C

11.5 C

11.7 C

0 W/m

0.00 mm

06:25

11.5 C

1028.5 hpa

94 %

4.8 km/h aus 114

9.7 km/h aus WSW

10.6 C

11.7 C

11.5 C

11.7 C

0 W/m

0.00 mm

06:30

11.5 C

1028.5 hpa

94 %

4.8 km/h aus 108

8.0 km/h aus SW

10.6 C

11.7 C

11.5 C

11.7 C

0 W/m

0.00 mm

06:35

11.5 C

1028.5 hpa

94 %

4.8 km/h aus 107

8.0 km/h aus SW

10.6 C

11.7 C

11.5 C

11.7 C

0 W/m

0.00 mm

06:40

11.5 C

1028.5 hpa

94 %

4.8 km/h aus 111

9.7 km/h aus W

10.6 C

11.7 C

11.5 C

11.7 C

0 W/m

0.00 mm

06:45

11.5 C

1028.5 hpa

94 %

4.8 km/h aus 112

8.0 km/h aus W

10.6 C

11.7 C

11.5 C

11.7 C

0 W/m

0.00 mm

06:50

11.5 C

1028.5 hpa

94 %

4.8 km/h aus 106

9.7 km/h aus SW

10.6 C

11.7 C

11.5 C

11.7 C

0 W/m

0.00 mm

06:55

11.5 C

1028.5 hpa

94 %

3.2 km/h aus 111

6.4 km/h aus WSW

10.6 C

11.7 C

11.5 C

11.7 C

0 W/m

0.00 mm

07:00

11.5 C

1028.6 hpa

94 %

4.8 km/h aus 110

8.0 km/h aus WSW

10.6 C

11.7 C

11.5 C

11.7 C

0 W/m

0.00 mm

07:05

11.5 C

1028.6 hpa

94 %

4.8 km/h aus 110

8.0 km/h aus WSW

10.6 C

11.7 C

11.5 C

11.7 C

0 W/m

0.00 mm

07:10

11.5 C

1028.6 hpa

94 %

3.2 km/h aus 109

6.4 km/h aus WSW

10.6 C

11.7 C

11.5 C

11.7 C

0 W/m

0.00 mm

07:15

11.5 C

1028.6 hpa

94 %

4.8 km/h aus 110

9.7 km/h aus SW

10.6 C

11.7 C

11.5 C

11.7 C

0 W/m

0.00 mm

07:20

11.5 C

1028.6 hpa

94 %

6.4 km/h aus 111

11.3 km/h aus WSW

10.6 C

11.3 C

11.1 C

11.7 C

0 W/m

0.00 mm

07:25

11.6 C

1028.6 hpa

95 %

4.8 km/h aus 106

8.0 km/h aus SW

10.8 C

11.7 C

11.6 C

11.7 C

0 W/m

0.00 mm

07:30

11.6 C

1028.9 hpa

95 %

4.8 km/h aus 105

9.7 km/h aus WSW

10.8 C

11.7 C

11.6 C

11.7 C

0 W/m

0.00 mm

07:35

11.6 C

1028.9 hpa

95 %

3.2 km/h aus 113

8.0 km/h aus WSW

10.8 C

11.7 C

11.6 C

11.7 C

0 W/m

0.00 mm

07:40

11.6 C

1028.9 hpa

95 %

4.8 km/h aus 106

9.7 km/h aus SSW

10.8 C

11.7 C

11.6 C

11.7 C

0 W/m

0.00 mm

07:45

11.6 C

1029.0 hpa

95 %

4.8 km/h aus 110

6.4 km/h aus SW

10.8 C

11.7 C

11.6 C

11.7 C

0 W/m

0.00 mm

07:50

11.6 C

1029.0 hpa

95 %

4.8 km/h aus 112

11.3 km/h aus WSW

10.8 C

11.7 C

11.6 C

11.7 C

0 W/m

0.00 mm

07:55

11.6 C

1029.0 hpa

95 %

4.8 km/h aus 112

9.7 km/h aus WSW

10.8 C

11.7 C

11.6 C

11.7 C

0 W/m

0.00 mm

08:00

11.6 C

1029.1 hpa

95 %

3.2 km/h aus 112

6.4 km/h aus WSW

10.8 C

11.8 C

11.6 C

11.8 C

0 W/m

0.00 mm

08:05

11.6 C

1029.1 hpa

95 %

4.8 km/h aus 110

9.7 km/h aus SW

10.8 C

11.8 C

11.6 C

11.8 C

0 W/m

0.00 mm

08:10

11.6 C

1029.1 hpa

95 %

3.2 km/h aus 104

8.0 km/h aus SW

10.8 C

11.8 C

11.6 C

11.8 C

0 W/m

0.00 mm

08:15

11.6 C

1029.1 hpa

95 %

4.8 km/h aus 112

8.0 km/h aus SW

10.8 C

11.8 C

11.6 C

11.8 C

0 W/m

0.00 mm

08:20

11.6 C

1029.1 hpa

95 %

4.8 km/h aus 112

9.7 km/h aus WSW

10.8 C

11.8 C

11.6 C

11.8 C

0 W/m

0.00 mm

08:25

11.6 C

1029.1 hpa

95 %

4.8 km/h aus 106

8.0 km/h aus SW

10.8 C

11.8 C

11.6 C

11.8 C

0 W/m

0.00 mm

08:30

11.6 C

1029.2 hpa

95 %

4.8 km/h aus 111

8.0 km/h aus SW

10.8 C

11.8 C

11.6 C

11.8 C

0 W/m

0.00 mm

08:35

11.6 C

1029.2 hpa

95 %

4.8 km/h aus 111

8.0 km/h aus SW

10.8 C

11.8 C

11.6 C

11.8 C

0 W/m

0.00 mm

08:40

11.6 C

1029.2 hpa

95 %

4.8 km/h aus 115

8.0 km/h aus WSW

10.8 C

11.8 C

11.6 C

11.8 C

0 W/m

0.00 mm

08:45

11.6 C

1029.3 hpa

95 %

3.2 km/h aus 110

6.4 km/h aus SW

10.8 C

11.8 C

11.6 C

11.8 C

0 W/m

0.00 mm

08:50

11.6 C

1029.3 hpa

95 %

4.8 km/h aus 113

8.0 km/h aus SW

10.8 C

11.8 C

11.6 C

11.8 C

0 W/m

0.00 mm

08:55

11.7 C

1029.3 hpa

95 %

3.2 km/h aus 109

6.4 km/h aus SW

10.9 C

11.8 C

11.7 C

11.8 C

0 W/m

0.00 mm

09:00

11.7 C

1029.5 hpa

95 %

4.8 km/h aus 114

8.0 km/h aus W

10.9 C

11.8 C

11.7 C

11.8 C

0 W/m

0.00 mm

09:05

11.7 C

1029.5 hpa

95 %

3.2 km/h aus 101

6.4 km/h aus WSW

10.9 C

11.8 C

11.7 C

11.8 C

0 W/m

0.00 mm

09:10

11.7 C

1029.5 hpa

95 %

4.8 km/h aus 95

6.4 km/h aus WSW

10.9 C

11.9 C

11.7 C

11.9 C

0 W/m

0.00 mm

09:15

11.7 C

1029.5 hpa

95 %

4.8 km/h aus 110

8.0 km/h aus SW

10.9 C

11.9 C

11.7 C

11.9 C

0 W/m

0.20 mm

09:20

11.8 C

1029.5 hpa

95 %

3.2 km/h aus 111

6.4 km/h aus WSW

11.0 C

11.9 C

11.8 C

11.9 C

0 W/m

0.00 mm

09:25

11.8 C

1029.5 hpa

95 %

3.2 km/h aus 109

6.4 km/h aus WSW

11.0 C

11.9 C

11.8 C

11.9 C

0 W/m

0.00 mm

09:30

11.8 C

1029.5 hpa

95 %

4.8 km/h aus 111

8.0 km/h aus WSW

11.1 C

12.0 C

11.8 C

12.0 C

0 W/m

0.00 mm

09:35

11.8 C

1029.5 hpa

95 %

4.8 km/h aus 112

9.7 km/h aus SW

11.1 C

12.0 C

11.8 C

12.0 C

0 W/m

0.00 mm

09:40

11.9 C

1029.5 hpa

95 %

4.8 km/h aus 113

11.3 km/h aus W

11.1 C

12.1 C

11.9 C

12.1 C

0 W/m

0.00 mm

09:45

11.9 C

1029.5 hpa

95 %

4.8 km/h aus 109

8.0 km/h aus W

11.2 C

12.1 C

11.9 C

12.1 C

0 W/m

0.00 mm

09:50

11.9 C

1029.5 hpa

95 %

4.8 km/h aus 112

8.0 km/h aus WSW

11.2 C

12.1 C

11.9 C

12.1 C

0 W/m

0.00 mm

09:55

12.0 C

1029.5 hpa

95 %

3.2 km/h aus 110

8.0 km/h aus W

11.2 C

12.1 C

12.0 C

12.1 C

0 W/m

0.00 mm

10:00

12.0 C

1029.5 hpa

95 %

1.6 km/h aus 112

6.4 km/h aus W

11.2 C

12.1 C

12.0 C

12.1 C

0 W/m

0.00 mm

10:05

12.1 C

1029.5 hpa

95 %

3.2 km/h aus 111

6.4 km/h aus W

11.3 C

12.2 C

12.1 C

12.2 C

0 W/m

0.00 mm

10:10

12.2 C

1029.5 hpa

95 %

4.8 km/h aus 106

11.3 km/h aus SW

11.4 C

12.3 C

12.2 C

12.3 C

0 W/m

0.00 mm

10:15

12.2 C

1029.6 hpa

95 %

3.2 km/h aus 108

6.4 km/h aus WSW

11.4 C

12.3 C

12.2 C

12.3 C

0 W/m

0.00 mm

10:20

12.2 C

1029.6 hpa

95 %

6.4 km/h aus 113

9.7 km/h aus W

11.4 C

12.1 C

11.9 C

12.3 C

0 W/m

0.00 mm

10:25

12.3 C

1029.6 hpa

95 %

4.8 km/h aus 112

8.0 km/h aus SW

11.5 C

12.4 C

12.3 C

12.4 C

0 W/m

0.00 mm

10:30

12.3 C

1029.6 hpa

95 %

6.4 km/h aus 109

9.7 km/h aus WSW

11.5 C

12.1 C

12.0 C

12.4 C

0 W/m

0.00 mm

10:35

12.3 C

1029.6 hpa

95 %

4.8 km/h aus 109

8.0 km/h aus WSW

11.5 C

12.4 C

12.3 C

12.4 C

0 W/m

0.00 mm

10:40

12.3 C

1029.6 hpa

95 %

4.8 km/h aus 112

8.0 km/h aus SW

11.6 C

12.4 C

12.3 C

12.4 C

0 W/m

0.00 mm

10:45

12.3 C

1029.6 hpa

95 %

4.8 km/h aus 108

11.3 km/h aus WSW

11.6 C

12.4 C

12.3 C

12.4 C

0 W/m

0.00 mm

10:50

12.4 C

1029.6 hpa

95 %

4.8 km/h aus 109

9.7 km/h aus W

11.7 C

12.6 C

12.4 C

12.6 C

0 W/m

0.00 mm

10:55

12.5 C

1029.6 hpa

95 %

4.8 km/h aus 106

9.7 km/h aus W

11.7 C

12.6 C

12.5 C

12.6 C

0 W/m

0.00 mm

11:00

12.6 C

1029.6 hpa

95 %

3.2 km/h aus 109

8.0 km/h aus W

11.8 C

12.7 C

12.6 C

12.7 C

0 W/m

0.00 mm

11:05

12.7 C

1029.6 hpa

95 %

6.4 km/h aus 108

11.3 km/h aus WNW

11.9 C

12.6 C

12.4 C

12.8 C

0 W/m

0.00 mm

11:10

12.7 C

1029.6 hpa

95 %

4.8 km/h aus 113

11.3 km/h aus W

11.9 C

12.8 C

12.7 C

12.8 C

0 W/m

0.00 mm

11:15

12.7 C

1029.6 hpa

95 %

8.0 km/h aus 110

14.5 km/h aus W

11.9 C

12.3 C

12.2 C

12.8 C

0 W/m

0.00 mm

11:20

12.8 C

1029.6 hpa

95 %

6.4 km/h aus 115

9.7 km/h aus W

12.0 C

12.7 C

12.6 C

12.9 C

0 W/m

0.00 mm

11:25

12.8 C

1029.6 hpa

95 %

6.4 km/h aus 111

9.7 km/h aus W

12.1 C

12.7 C

12.6 C

12.9 C

0 W/m

0.00 mm

11:30

12.8 C

1029.5 hpa

95 %

6.4 km/h aus 109

12.9 km/h aus WNW

12.1 C

12.7 C

12.6 C

12.9 C

0 W/m

0.00 mm

11:35

12.9 C

1029.5 hpa

95 %

6.4 km/h aus 106

11.3 km/h aus WNW

12.1 C

12.8 C

12.7 C

13.0 C

0 W/m

0.00 mm

11:40

12.9 C

1029.5 hpa

95 %

4.8 km/h aus 107

11.3 km/h aus W

12.1 C

13.0 C

12.9 C

13.0 C

0 W/m

0.00 mm

11:45

13.0 C

1029.3 hpa

95 %

6.4 km/h aus 116

11.3 km/h aus W

12.2 C

12.9 C

12.8 C

13.1 C

0 W/m

0.00 mm

11:50

13.1 C

1029.3 hpa

95 %

4.8 km/h aus 110

8.0 km/h aus W

12.3 C

13.2 C

13.1 C

13.2 C

0 W/m

0.00 mm

11:55

13.1 C

1029.3 hpa

95 %

3.2 km/h aus 114

11.3 km/h aus WNW

12.3 C

13.2 C

13.1 C

13.2 C

0 W/m

0.00 mm

12:00

13.1 C

1029.2 hpa

95 %

4.8 km/h aus 114

9.7 km/h aus W

12.3 C

13.2 C

13.1 C

13.2 C

0 W/m

0.00 mm

12:05

13.1 C

1029.2 hpa

95 %

4.8 km/h aus 113

9.7 km/h aus WSW

12.3 C

13.2 C

13.1 C

13.2 C

0 W/m

0.00 mm

12:10

13.2 C

1029.2 hpa

95 %

4.8 km/h aus 112

9.7 km/h aus WNW

12.4 C

13.3 C

13.2 C

13.3 C

0 W/m

0.00 mm

12:15

13.2 C

1029.1 hpa

95 %

4.8 km/h aus 114

8.0 km/h aus W

12.4 C

13.3 C

13.2 C

13.3 C

0 W/m

0.00 mm

12:20

13.2 C

1029.1 hpa

95 %

4.8 km/h aus 113

9.7 km/h aus WNW

12.4 C

13.3 C

13.2 C

13.3 C

0 W/m

0.00 mm

12:25

13.2 C

1029.1 hpa

95 %

4.8 km/h aus 113

8.0 km/h aus WNW

12.4 C

13.3 C

13.2 C

13.3 C

0 W/m

0.00 mm

12:30

13.3 C

1029.1 hpa

95 %

6.4 km/h aus 110

11.3 km/h aus W

12.5 C

13.3 C

13.2 C

13.4 C

0 W/m

0.00 mm

12:35

13.3 C

1029.1 hpa

95 %

3.2 km/h aus 109

4.8 km/h aus W

12.5 C

13.4 C

13.3 C

13.4 C

0 W/m

0.00 mm

12:40

13.3 C

1029.1 hpa

95 %

4.8 km/h aus 114

9.7 km/h aus W

12.5 C

13.4 C

13.3 C

13.4 C

0 W/m

0.00 mm

12:45

13.3 C

1029.1 hpa

95 %

3.2 km/h aus 109

8.0 km/h aus WNW

12.5 C

13.4 C

13.3 C

13.4 C

0 W/m

0.00 mm

12:50

13.3 C

1029.1 hpa

94 %

6.4 km/h aus 114

11.3 km/h aus WNW

12.4 C

13.3 C

13.2 C

13.4 C

0 W/m

0.00 mm

12:55

13.3 C

1029.1 hpa

94 %

4.8 km/h aus 110

8.0 km/h aus WNW

12.4 C

13.4 C

13.3 C

13.4 C

0 W/m

0.00 mm

13:00

13.4 C

1029.0 hpa

94 %

4.8 km/h aus 112

8.0 km/h aus W

12.4 C

13.5 C

13.4 C

13.5 C

0 W/m

0.00 mm

13:05

13.4 C

1029.0 hpa

94 %

6.4 km/h aus 110

11.3 km/h aus WNW

12.4 C

13.4 C

13.3 C

13.5 C

0 W/m

0.00 mm

13:10

13.4 C

1029.0 hpa

94 %

4.8 km/h aus 114

11.3 km/h aus W

12.4 C

13.5 C

13.4 C

13.5 C

0 W/m

0.00 mm

13:15

13.4 C

1029.0 hpa

94 %

3.2 km/h aus 113

9.7 km/h aus W

12.4 C

13.5 C

13.4 C

13.5 C

0 W/m

0.00 mm

13:20

13.4 C

1029.0 hpa

94 %

3.2 km/h aus 116

8.0 km/h aus W

12.5 C

13.6 C

13.4 C

13.6 C

0 W/m

0.00 mm

13:25

13.4 C

1029.0 hpa

94 %

3.2 km/h aus 111

6.4 km/h aus W

12.5 C

13.6 C

13.4 C

13.6 C

0 W/m

0.00 mm

13:30

13.5 C

1029.0 hpa

94 %

6.4 km/h aus 112

11.3 km/h aus WNW

12.6 C

13.6 C

13.4 C

13.6 C

0 W/m

0.00 mm

13:35

13.5 C

1029.0 hpa

94 %

6.4 km/h aus 110

11.3 km/h aus W

12.6 C

13.6 C

13.4 C

13.6 C

0 W/m

0.00 mm

13:40

13.6 C

1029.0 hpa

94 %

4.8 km/h aus 115

11.3 km/h aus WSW

12.6 C

13.7 C

13.6 C

13.7 C

0 W/m

0.00 mm

13:45

13.6 C

1028.8 hpa

94 %

6.4 km/h aus 110

11.3 km/h aus W

12.6 C

13.6 C

13.5 C

13.7 C

0 W/m

0.00 mm

13:50

13.6 C

1028.8 hpa

94 %

6.4 km/h aus 112

14.5 km/h aus WSW

12.6 C

13.6 C

13.5 C

13.7 C

0 W/m

0.00 mm

13:55

13.6 C

1028.8 hpa

94 %

6.4 km/h aus 114

14.5 km/h aus SW

12.6 C

13.6 C

13.5 C

13.7 C

0 W/m

0.00 mm

14:00

13.6 C

1028.8 hpa

94 %

6.4 km/h aus 114

9.7 km/h aus WSW

12.6 C

13.6 C

13.5 C

13.7 C

0 W/m

0.00 mm

14:05

13.6 C

1028.8 hpa

94 %

6.4 km/h aus 116

11.3 km/h aus WSW

12.7 C

13.7 C

13.6 C

13.7 C

0 W/m

0.00 mm

14:10

13.6 C

1028.8 hpa

94 %

4.8 km/h aus 115

9.7 km/h aus W

12.7 C

13.7 C

13.6 C

13.7 C

0 W/m

0.00 mm

14:15

13.6 C

1028.8 hpa

94 %

6.4 km/h aus 107

11.3 km/h aus WNW

12.7 C

13.7 C

13.6 C

13.7 C

0 W/m

0.00 mm

14:20

13.7 C

1028.8 hpa

94 %

9.7 km/h aus 108

14.5 km/h aus W

12.7 C

13.2 C

13.1 C

13.8 C

0 W/m

0.00 mm

14:25

13.6 C

1028.8 hpa

94 %

6.4 km/h aus 112

11.3 km/h aus W

12.7 C

13.7 C

13.6 C

13.7 C

0 W/m

0.00 mm

14:30

13.6 C

1028.8 hpa

94 %

6.4 km/h aus 112

9.7 km/h aus WNW

12.7 C

13.7 C

13.6 C

13.7 C

0 W/m

0.00 mm

14:35

13.6 C

1028.8 hpa

94 %

6.4 km/h aus 110

11.3 km/h aus W

12.7 C

13.7 C

13.6 C

13.7 C

0 W/m

0.00 mm

14:40

13.6 C

1028.8 hpa

94 %

4.8 km/h aus 112

8.0 km/h aus WNW

12.7 C

13.7 C

13.6 C

13.7 C

0 W/m

0.00 mm

14:45

13.6 C

1028.8 hpa

94 %

8.0 km/h aus 112

14.5 km/h aus W

12.7 C

13.4 C

13.3 C

13.7 C

0 W/m

0.00 mm

14:50

13.7 C

1028.8 hpa

94 %

6.4 km/h aus 111

11.3 km/h aus WNW

12.7 C

13.7 C

13.6 C

13.8 C

0 W/m

0.00 mm

14:55

13.6 C

1028.8 hpa

94 %

4.8 km/h aus 110

8.0 km/h aus WNW

12.7 C

13.7 C

13.6 C

13.7 C

0 W/m

0.00 mm

15:00

13.7 C

1028.8 hpa

94 %

4.8 km/h aus 112

9.7 km/h aus WNW

12.7 C

13.8 C

13.7 C

13.8 C

0 W/m

0.00 mm

15:05

13.6 C

1028.8 hpa

94 %

6.4 km/h aus 114

12.9 km/h aus W

12.7 C

13.7 C

13.6 C

13.7 C

0 W/m

0.20 mm

15:10

13.6 C

1028.8 hpa

94 %

4.8 km/h aus 115

9.7 km/h aus WNW

12.7 C

13.7 C

13.6 C

13.7 C

0 W/m

0.00 mm

15:15

13.6 C

1028.7 hpa

94 %

4.8 km/h aus 114

9.7 km/h aus WNW

12.6 C

13.7 C

13.6 C

13.7 C

0 W/m

0.00 mm

15:20

13.6 C

1028.7 hpa

94 %

4.8 km/h aus 113

8.0 km/h aus WNW

12.6 C

13.7 C

13.6 C

13.7 C

0 W/m

0.00 mm

15:25

13.6 C

1028.7 hpa

94 %

3.2 km/h aus 109

6.4 km/h aus W

12.6 C

13.7 C

13.6 C

13.7 C

0 W/m

0.00 mm

15:30

13.6 C

1028.6 hpa

94 %

1.6 km/h aus 108

4.8 km/h aus WNW

12.6 C

13.7 C

13.6 C

13.7 C

0 W/m

0.00 mm

15:35

13.6 C

1028.6 hpa

94 %

1.6 km/h aus 107

3.2 km/h aus WNW

12.6 C

13.7 C

13.6 C

13.7 C

0 W/m

0.00 mm

15:40

13.6 C

1028.6 hpa

94 %

1.6 km/h aus 106

4.8 km/h aus WNW

12.6 C

13.7 C

13.6 C

13.7 C

0 W/m

0.00 mm

15:45

13.6 C

1028.6 hpa

94 %

4.8 km/h aus 106

8.0 km/h aus WNW

12.6 C

13.7 C

13.6 C

13.7 C

0 W/m

0.00 mm

15:50

13.6 C

1028.6 hpa

94 %

3.2 km/h aus 110

6.4 km/h aus WNW

12.6 C

13.7 C

13.6 C

13.7 C

0 W/m

0.00 mm

15:55

13.6 C

1028.6 hpa

94 %

1.6 km/h aus 109

4.8 km/h aus W

12.6 C

13.7 C

13.6 C

13.7 C

0 W/m

0.00 mm

16:00

13.6 C

1028.5 hpa

94 %

4.8 km/h aus 111

8.0 km/h aus W

12.6 C

13.7 C

13.6 C

13.7 C

0 W/m

0.00 mm

16:05

13.6 C

1028.5 hpa

94 %

3.2 km/h aus 104

6.4 km/h aus WNW

12.6 C

13.7 C

13.6 C

13.7 C

0 W/m

0.00 mm

16:10

13.6 C

1028.5 hpa

94 %

3.2 km/h aus 114

6.4 km/h aus W

12.6 C

13.7 C

13.6 C

13.7 C

0 W/m

0.20 mm

16:15

13.6 C

1028.5 hpa

95 %

3.2 km/h aus 106

6.4 km/h aus W

12.8 C

13.7 C

13.6 C

13.7 C

0 W/m

0.00 mm

16:20

13.6 C

1028.5 hpa

95 %

1.6 km/h aus 114

4.8 km/h aus W

12.8 C

13.7 C

13.6 C

13.7 C

0 W/m

0.00 mm

16:25

13.6 C

1028.5 hpa

95 %

3.2 km/h aus 105

6.4 km/h aus W

12.8 C

13.7 C

13.6 C

13.7 C

0 W/m

0.00 mm

16:30

13.6 C

1028.5 hpa

95 %

3.2 km/h aus 115

6.4 km/h aus W

12.8 C

13.7 C

13.6 C

13.7 C

0 W/m

0.00 mm

16:35

13.6 C

1028.5 hpa

95 %

3.2 km/h aus 113

6.4 km/h aus W

12.8 C

13.7 C

13.6 C

13.7 C

0 W/m

0.00 mm

16:40

13.6 C

1028.5 hpa

95 %

3.2 km/h aus 109

6.4 km/h aus W

12.8 C

13.7 C

13.6 C

13.7 C

0 W/m

0.00 mm

16:45

13.6 C

1028.5 hpa

95 %

4.8 km/h aus 109

8.0 km/h aus W

12.8 C

13.7 C

13.6 C

13.7 C

0 W/m

0.00 mm

16:50

13.6 C

1028.5 hpa

95 %

4.8 km/h aus 112

8.0 km/h aus WSW

12.8 C

13.7 C

13.6 C

13.7 C

0 W/m

0.00 mm

16:55

13.5 C

1028.5 hpa

95 %

3.2 km/h aus 109

6.4 km/h aus WSW

12.7 C

13.6 C

13.5 C

13.6 C

0 W/m

0.00 mm

17:00

13.5 C

1028.5 hpa

95 %

4.8 km/h aus 112

8.0 km/h aus WSW

12.7 C

13.6 C

13.5 C

13.6 C

0 W/m

0.00 mm

17:05

13.5 C

1028.5 hpa

95 %

4.8 km/h aus 110

8.0 km/h aus WSW

12.7 C

13.6 C

13.5 C

13.6 C

0 W/m

0.00 mm

17:10

13.5 C

1028.5 hpa

95 %

3.2 km/h aus 111

6.4 km/h aus SW

12.7 C

13.6 C

13.5 C

13.6 C

0 W/m

0.00 mm

17:15

13.5 C

1028.7 hpa

95 %

3.2 km/h aus 108

6.4 km/h aus W

12.7 C

13.6 C

13.5 C

13.6 C

0 W/m

0.00 mm

17:20

13.5 C

1028.7 hpa

95 %

1.6 km/h aus 107

3.2 km/h aus W

12.7 C

13.6 C

13.5 C

13.6 C

0 W/m

0.00 mm

17:25

13.5 C

1028.7 hpa

95 %

1.6 km/h aus 102

6.4 km/h aus W

12.7 C

13.6 C

13.5 C

13.6 C

0 W/m

0.00 mm

17:30

13.4 C

1028.7 hpa

95 %

3.2 km/h aus 110

4.8 km/h aus W

12.7 C

13.6 C

13.4 C

13.6 C

0 W/m

0.00 mm

17:35

13.4 C

1028.7 hpa

95 %

3.2 km/h aus 110

6.4 km/h aus W

12.7 C

13.6 C

13.4 C

13.6 C

0 W/m

0.00 mm

17:40

13.4 C

1028.7 hpa

95 %

3.2 km/h aus 101

4.8 km/h aus W

12.7 C

13.6 C

13.4 C

13.6 C

0 W/m

0.00 mm

17:45

13.4 C

1028.6 hpa

95 %

3.2 km/h aus 101

4.8 km/h aus W

12.7 C

13.6 C

13.4 C

13.6 C

0 W/m

0.00 mm

17:50

13.4 C

1028.6 hpa

95 %

1.6 km/h aus 108

4.8 km/h aus W

12.7 C

13.6 C

13.4 C

13.6 C

0 W/m

0.00 mm

17:55

13.4 C

1028.6 hpa

95 %

1.6 km/h aus 109

4.8 km/h aus W

12.6 C

13.5 C

13.4 C

13.5 C

0 W/m

0.00 mm

18:00

13.4 C

1028.8 hpa

95 %

1.6 km/h aus 108

3.2 km/h aus W

12.6 C

13.5 C

13.4 C

13.5 C

0 W/m

0.00 mm

18:05

13.4 C

1028.8 hpa

95 %

0.0 km/h aus 108

1.6 km/h aus W

12.6 C

13.5 C

13.4 C

13.5 C

0 W/m

0.00 mm

18:10

13.3 C

1028.8 hpa

95 %

0.0 km/h aus 104

3.2 km/h aus W

12.5 C

13.4 C

13.3 C

13.4 C

0 W/m

0.00 mm

18:15

13.3 C

1028.9 hpa

95 %

1.6 km/h aus 103

3.2 km/h aus W

12.5 C

13.4 C

13.3 C

13.4 C

0 W/m

0.00 mm

18:20

13.3 C

1028.9 hpa

95 %

1.6 km/h aus 111

4.8 km/h aus W

12.5 C

13.4 C

13.3 C

13.4 C

0 W/m

0.00 mm

18:25

13.3 C

1028.9 hpa

95 %

1.6 km/h aus 109

3.2 km/h aus W

12.5 C

13.4 C

13.3 C

13.4 C

0 W/m

0.00 mm

18:30

13.3 C

1029.0 hpa

95 %

1.6 km/h aus 110

4.8 km/h aus W

12.5 C

13.4 C

13.3 C

13.4 C

0 W/m

0.00 mm

18:35

13.3 C

1029.0 hpa

95 %

0.0 km/h aus 106

3.2 km/h aus W

12.5 C

13.4 C

13.3 C

13.4 C

0 W/m

0.00 mm

18:40

13.3 C

1029.0 hpa

95 %

0.0 km/h aus 106

1.6 km/h aus W

12.5 C

13.4 C

13.3 C

13.4 C

0 W/m

0.00 mm

18:45

13.3 C

1028.9 hpa

95 %

1.6 km/h aus 100

4.8 km/h aus W

12.5 C

13.4 C

13.3 C

13.4 C

0 W/m

0.00 mm

18:50

13.2 C

1028.9 hpa

95 %

1.6 km/h aus 105

4.8 km/h aus W

12.4 C

13.3 C

13.2 C

13.3 C

0 W/m

0.00 mm

18:55

13.3 C

1028.9 hpa

95 %

3.2 km/h aus 111

6.4 km/h aus W

12.5 C

13.4 C

13.3 C

13.4 C

0 W/m

0.00 mm

19:00

13.2 C

1028.6 hpa

95 %

3.2 km/h aus 109

4.8 km/h aus W

12.4 C

13.3 C

13.2 C

13.3 C

0 W/m

0.00 mm

19:05

13.2 C

1028.6 hpa

95 %

1.6 km/h aus 102

4.8 km/h aus W

12.4 C

13.3 C

13.2 C

13.3 C

0 W/m

0.00 mm

19:10

13.2 C

1028.6 hpa

95 %

1.6 km/h aus 110

3.2 km/h aus W

12.4 C

13.3 C

13.2 C

13.3 C

0 W/m

0.00 mm

19:15

13.2 C

1028.7 hpa

95 %

1.6 km/h aus 110

3.2 km/h aus W

12.4 C

13.3 C

13.2 C

13.3 C

0 W/m

0.00 mm

19:20

13.2 C

1028.7 hpa

95 %

1.6 km/h aus 109

4.8 km/h aus W

12.4 C

13.3 C

13.2 C

13.3 C

0 W/m

0.00 mm

19:25

13.2 C

1028.7 hpa

95 %

1.6 km/h aus 111

3.2 km/h aus W

12.4 C

13.3 C

13.2 C

13.3 C

0 W/m

0.00 mm

19:30

13.2 C

1028.6 hpa

95 %

1.6 km/h aus 111

4.8 km/h aus W

12.4 C

13.3 C

13.2 C

13.3 C

0 W/m

0.00 mm

19:35

13.2 C

1028.6 hpa

95 %

1.6 km/h aus 110

3.2 km/h aus W

12.4 C

13.3 C

13.2 C

13.3 C

0 W/m

0.00 mm

19:40

13.2 C

1028.6 hpa

95 %

1.6 km/h aus 112

4.8 km/h aus W

12.4 C

13.3 C

13.2 C

13.3 C

0 W/m

0.00 mm

19:45

13.2 C

1028.6 hpa

95 %

1.6 km/h aus 112

4.8 km/h aus W

12.4 C

13.3 C

13.2 C

13.3 C

0 W/m

0.00 mm

19:50

13.1 C

1028.6 hpa

95 %

1.6 km/h aus 114

4.8 km/h aus W

12.3 C

13.2 C

13.1 C

13.2 C

0 W/m

0.20 mm

19:55

13.1 C

1028.6 hpa

95 %

1.6 km/h aus 114

4.8 km/h aus W

12.3 C

13.2 C

13.1 C

13.2 C

0 W/m

0.00 mm

20:00

13.1 C

1028.5 hpa

95 %

3.2 km/h aus 113

4.8 km/h aus W

12.3 C

13.2 C

13.1 C

13.2 C

0 W/m

0.00 mm

20:05

13.1 C

1028.5 hpa

95 %

1.6 km/h aus 111

4.8 km/h aus W

12.3 C

13.2 C

13.1 C

13.2 C

0 W/m

0.00 mm

20:10

13.1 C

1028.5 hpa

95 %

1.6 km/h aus 107

4.8 km/h aus W

12.3 C

13.2 C

13.1 C

13.2 C

0 W/m

0.20 mm

20:15

13.1 C

1028.5 hpa

95 %

1.6 km/h aus 108

4.8 km/h aus W

12.3 C

13.2 C

13.1 C

13.2 C

0 W/m

0.00 mm

20:20

13.1 C

1028.5 hpa

95 %

1.6 km/h aus 109

3.2 km/h aus W

12.3 C

13.2 C

13.1 C

13.2 C

0 W/m

0.00 mm

20:25

13.1 C

1028.5 hpa

95 %

1.6 km/h aus 110

3.2 km/h aus W

12.3 C

13.2 C

13.1 C

13.2 C

0 W/m

0.20 mm

20:30

13.1 C

1028.4 hpa

95 %

3.2 km/h aus 113

4.8 km/h aus W

12.3 C

13.2 C

13.1 C

13.2 C

0 W/m

0.00 mm

20:35

13.1 C

1028.4 hpa

95 %

3.2 km/h aus 104

4.8 km/h aus W

12.3 C

13.2 C

13.1 C

13.2 C

0 W/m

0.00 mm

20:40

13.1 C

1028.4 hpa

95 %

3.2 km/h aus 110

6.4 km/h aus W

12.3 C

13.2 C

13.1 C

13.2 C

0 W/m

0.00 mm

20:45

13.1 C

1028.2 hpa

95 %

3.2 km/h aus 114

4.8 km/h aus W

12.3 C

13.2 C

13.1 C

13.2 C

0 W/m

0.00 mm

20:50

13.1 C

1028.2 hpa

95 %

3.2 km/h aus 112

6.4 km/h aus W

12.3 C

13.2 C

13.1 C

13.2 C

0 W/m

0.00 mm

20:55

13.1 C

1028.2 hpa

95 %

4.8 km/h aus 113

8.0 km/h aus W

12.3 C

13.2 C

13.1 C

13.2 C

0 W/m

0.00 mm

21:00

13.1 C

1028.3 hpa

95 %

4.8 km/h aus 115

8.0 km/h aus SW

12.3 C

13.2 C

13.1 C

13.2 C

0 W/m

0.20 mm

21:05

13.2 C

1028.3 hpa

95 %

4.8 km/h aus 108

8.0 km/h aus SW

12.4 C

13.3 C

13.2 C

13.3 C

0 W/m

0.00 mm

21:10

13.2 C

1028.3 hpa

95 %

4.8 km/h aus 106

8.0 km/h aus WSW

12.4 C

13.3 C

13.2 C

13.3 C

0 W/m

0.00 mm

21:15

13.2 C

1028.4 hpa

95 %

4.8 km/h aus 112

9.7 km/h aus SW

12.4 C

13.3 C

13.2 C

13.3 C

0 W/m

0.00 mm

21:20

13.2 C

1028.4 hpa

95 %

4.8 km/h aus 115

8.0 km/h aus W

12.4 C

13.3 C

13.2 C

13.3 C

0 W/m

0.00 mm

21:25

13.2 C

1028.4 hpa

96 %

4.8 km/h aus 113

11.3 km/h aus NW

12.6 C

13.3 C

13.2 C

13.3 C

0 W/m

0.00 mm

21:30

13.2 C

1028.5 hpa

95 %

3.2 km/h aus 103

6.4 km/h aus WNW

12.4 C

13.3 C

13.2 C

13.3 C

0 W/m

0.00 mm

21:35

13.2 C

1028.5 hpa

95 %

4.8 km/h aus 116

8.0 km/h aus WNW

12.4 C

13.3 C

13.2 C

13.3 C

0 W/m

0.00 mm

21:40

13.2 C

1028.5 hpa

95 %

4.8 km/h aus 114

9.7 km/h aus W

12.4 C

13.3 C

13.2 C

13.3 C

0 W/m

0.00 mm

21:45

13.2 C

1028.4 hpa

95 %

4.8 km/h aus 109

6.4 km/h aus WNW

12.4 C

13.3 C

13.2 C

13.3 C

0 W/m

0.00 mm

21:50

13.2 C

1028.4 hpa

95 %

4.8 km/h aus 114

8.0 km/h aus W

12.4 C

13.3 C

13.2 C

13.3 C

0 W/m

0.00 mm

21:55

13.2 C

1028.4 hpa

95 %

4.8 km/h aus 114

8.0 km/h aus WNW

12.4 C

13.3 C

13.2 C

13.3 C

0 W/m

0.00 mm

22:00

13.2 C

1028.4 hpa

95 %

4.8 km/h aus 109

8.0 km/h aus W

12.4 C

13.3 C

13.2 C

13.3 C

0 W/m

0.00 mm

22:05

13.2 C

1028.4 hpa

95 %

4.8 km/h aus 110

8.0 km/h aus WNW

12.4 C

13.3 C

13.2 C

13.3 C

0 W/m

0.00 mm

22:10

13.2 C

1028.4 hpa

95 %

4.8 km/h aus 111

8.0 km/h aus WNW

12.4 C

13.3 C

13.2 C

13.3 C

0 W/m

0.00 mm

22:15

13.2 C

1028.2 hpa

95 %

4.8 km/h aus 110

9.7 km/h aus WNW

12.4 C

13.3 C

13.2 C

13.3 C

0 W/m

0.00 mm

22:20

13.2 C

1028.2 hpa

95 %

4.8 km/h aus 115

8.0 km/h aus W

12.4 C

13.3 C

13.2 C

13.3 C

0 W/m

0.00 mm

22:25

13.2 C

1028.2 hpa

95 %

4.8 km/h aus 113

8.0 km/h aus W

12.4 C

13.3 C

13.2 C

13.3 C

0 W/m

0.00 mm

22:30

13.2 C

1028.2 hpa

95 %

4.8 km/h aus 110

6.4 km/h aus WNW

12.4 C

13.3 C

13.2 C

13.3 C

0 W/m

0.00 mm

22:35

13.2 C

1028.2 hpa

95 %

4.8 km/h aus 108

8.0 km/h aus W

12.4 C

13.3 C

13.2 C

13.3 C

0 W/m

0.20 mm

22:40

13.2 C

1028.2 hpa

95 %

3.2 km/h aus 114

8.0 km/h aus WNW

12.4 C

13.3 C

13.2 C

13.3 C

0 W/m

0.00 mm

22:45

13.2 C

1028.1 hpa

95 %

1.6 km/h aus 114

4.8 km/h aus WNW

12.4 C

13.3 C

13.2 C

13.3 C

0 W/m

0.00 mm

22:50

13.2 C

1028.1 hpa

95 %

3.2 km/h aus 106

6.4 km/h aus WNW

12.4 C

13.3 C

13.2 C

13.3 C

0 W/m

0.00 mm

22:55

13.2 C

1028.1 hpa

95 %

3.2 km/h aus 110

6.4 km/h aus WNW

12.4 C

13.3 C

13.2 C

13.3 C

0 W/m

0.00 mm

23:00

13.1 C

1028.0 hpa

95 %

3.2 km/h aus 110

6.4 km/h aus WNW

12.3 C

13.2 C

13.1 C

13.2 C

0 W/m

0.00 mm

23:05

13.1 C

1028.0 hpa

95 %

3.2 km/h aus 109

6.4 km/h aus NW

12.3 C

13.2 C

13.1 C

13.2 C

0 W/m

0.20 mm

23:10

13.1 C

1028.0 hpa

95 %

3.2 km/h aus 110

6.4 km/h aus NW

12.3 C

13.2 C

13.1 C

13.2 C

0 W/m

0.00 mm

23:15

13.1 C

1028.0 hpa

95 %

3.2 km/h aus 111

6.4 km/h aus WNW

12.3 C

13.2 C

13.1 C

13.2 C

0 W/m

0.00 mm

23:20

13.1 C

1028.0 hpa

95 %

3.2 km/h aus 113

6.4 km/h aus WNW

12.3 C

13.2 C

13.1 C

13.2 C

0 W/m

0.00 mm

23:25

13.1 C

1028.0 hpa

95 %

3.2 km/h aus 105

6.4 km/h aus NW

12.3 C

13.2 C

13.1 C

13.2 C

0 W/m

0.00 mm

23:30

13.1 C

1028.0 hpa

96 %

1.6 km/h aus 104

4.8 km/h aus W

12.4 C

13.2 C

13.1 C

13.2 C

0 W/m

0.00 mm

23:35

13.1 C

1028.0 hpa

96 %

3.2 km/h aus 106

6.4 km/h aus W

12.4 C

13.2 C

13.1 C

13.2 C

0 W/m

0.00 mm

23:40

13.1 C

1028.0 hpa

96 %

3.2 km/h aus 113

6.4 km/h aus WNW

12.4 C

13.2 C

13.1 C

13.2 C

0 W/m

0.00 mm

23:45

13.1 C

1027.9 hpa

96 %

6.4 km/h aus 111

8.0 km/h aus WNW

12.4 C

13.0 C

12.9 C

13.2 C

0 W/m

0.00 mm

23:50

13.1 C

1027.9 hpa

96 %

4.8 km/h aus 109

9.7 km/h aus W

12.4 C

13.2 C

13.1 C

13.2 C

0 W/m

0.00 mm

23:55

13.1 C

1027.9 hpa

96 %

4.8 km/h aus 116

8.0 km/h aus WNW

12.4 C

13.2 C

13.1 C

13.2 C

0 W/m

0.00 mm